Regional Weather Roundup
Issued by NWS

Home | Current Version | Previous Version | Text Only | Print | Product List | Glossary On
Versions: 1 2 3 4 5 6 7 8 9 10 11 12 13 14 15 16 17 18 19 20 21 22 23 24 25 26 27 28 29 30 31 32 33 34 35 36 37 38 39 40 41 42 43 44 45 46 47 48 49 50
000
ASUS46 KSEW 281110
RWRWA

WASHINGTON REGIONAL WEATHER ROUNDUP
NATIONAL WEATHER SERVICE SEATTLE WA
400 AM PDT TUE APR 28 2015

NOTE:"FAIR" INDICATES FEW OR NO CLOUDS BELOW 12,000 FEET WITH NO
SIGNIFICANT WEATHER AND/OR OBSTRUCTIONS TO VISIBILITY.

WAZ505-507>509-281200-
SEATTLE, TACOMA, EVERETT, AND VICINITY

CITY           SKY/WX    TMP DP  RH WIND       PRES   REMARKS
EVERETT        MOCLDY    60  51  72 S17       29.97R
BOEING FIELD   CLOUDY    62  50  64 S8        30.00R
RENTON         CLOUDY    60  49  66 S10       30.00R
SEATAC AIRPORT PTCLDY    58  49  72 S12       30.02R
JBLM-MCCHORD   CLOUDY    55  52  88 SE5       30.02R
PUYALLUP       FAIR      54  54 100 CALM      30.03R
BREMERTON      PTCLDY    55  50  82 S12       29.99F
JBLM-FT LEWIS  PTCLDY    56  53  89 S3        30.01R
TACOMA NARROWS MOCLDY    57  49  74 SW12      30.00R
$$

WAZ001-503-506-510-514-515-281200-
NORTH INTERIOR

CITY           SKY/WX    TMP DP  RH WIND       PRES   REMARKS
BELLINGHAM     MOCLDY    52  50  93 E3        29.93R
FRIDAY HARBOR  MOCLDY    50  48  93 CALM      29.94R
EASTSOUND      MOCLDY    52  50  93 S3        29.91R
PORT ANGELES   CLOUDY    54  50  86 SW5       29.93S
NAS WHIDBEY    MOCLDY    56  50  80 S5        29.96R
ARLINGTON      CLOUDY    54  48  82 SW3       29.97R
BURLINGTON     PTCLDY    54  52  94 S3        29.95R
$$

WAZ020-022-039-040-504-511-512-281200-
SOUTHWEST INTERIOR

CITY           SKY/WX    TMP DP  RH WIND       PRES   REMARKS
SHELTON        PTCLDY    54  49  83 SW14      29.98R
OLYMPIA        CLOUDY    57  49  74 S10       30.01R
CHEHALIS       CLOUDY    59  52  77 VRB3      30.02S
KELSO          CLOUDY    57  48  72 NE3       30.08R
VANCOUVER      CLOUDY    60  52  74 W9        30.02R
SCAPPOOSE, OR  MOCLDY    59  52  77 N5        30.02R
PORTLAND, OR   CLOUDY    62  52  69 SW8       30.03R
$$

WAZ021-516-517-281200-
WASHINGTON COAST

CITY           SKY/WX    TMP DP  RH WIND       PRES   REMARKS
FORKS          CLOUDY    54  52  93 S8G17     29.99S
HOQUIAM        CLOUDY    55  52  89 S9        30.04R
ASTORIA, OR    PTCLDY    54  51  90 SW15G22   30.05R
$$

WAZ019-023-024-040-518-519-281200-
CASCADE MOUNTAINS AND COLUMBIA GORGE

CITY           SKY/WX    TMP DP  RH WIND       PRES   REMARKS
TROUTDALE, OR  CLOUDY    63  49  60 S13G20    30.03R
THE DALLES, OR CLEAR     48  40  73 E5        30.02S
$$

WAZ026-027-041>044-520-521-281200-
EAST SLOPES

CITY           SKY/WX    TMP DP  RH WIND       PRES   REMARKS
OMAK           CLEAR     45  37  73 W3        30.08F
WENATCHEE      CLEAR     51  39  63 N5        30.06F
ELLENSBURG     CLEAR     42  35  76 CALM      30.05F
YAKIMA         CLEAR     46  38  73 W7        30.05F
$$

WAZ028-034-035-281200-
COLUMBIA BASIN

CITY           SKY/WX    TMP DP  RH WIND       PRES   REMARKS
EPHRATA        CLEAR     49  35  58 N10       30.04F
MOSES LAKE     CLEAR     47  35  63 N8        30.05F
PASCO          CLEAR     42  39  89 CALM      30.03F
HERMISTON, OR  CLEAR     43  36  76 CALM      30.00F
$$

WAZ036>038-281200-
NORTHEAST WASHINGTON

CITY           SKY/WX    TMP DP  RH WIND       PRES   REMARKS
SPOKANE GEIGER MOCLDY    48  36  63 NE7       30.10F
SPOKANE FELTS  CLEAR     43  37  79 CALM      30.11F
FAIRCHILD AFB  PTCLDY    47  36  65 NE8       30.09F
COEURDALENE,ID CLEAR     43  37  81 E8        30.14F
DEER PARK      CLEAR     48  36  63 N5        30.11F
$$

WAZ029>033-281200-
SOUTHEAST WASHINGTON

CITY           SKY/WX    TMP DP  RH WIND       PRES   REMARKS
PULLMAN        CLEAR     51  33  50 E13       30.10F
LEWISTON, ID   CLEAR     50  37  61 E9        30.08F
WALLA WALLA    CLEAR     51  37  58 SE5       30.02F
PENDLETON, OR  CLEAR     52  33  48 CALM      30.01F
$$


USA.gov is the U.S. government's official web portal to all federal, state and local government web resources and services.